Location: Newark
(40.9833°N, 0.0333°W)
Time: 14:44:49
(UTC+00:00)

Transit 4A - Visible Passes

Search period start: 31 October 2020 00:00
Search period end: 10 November 2020 00:00
Orbit: 862 x 982 km, 66.8° (Epoch: 30 October)

Date Brightness Start Highest point End Pass type
(mag) Time Alt. Az. Time Alt. Az. Time Alt. Az.
07 Nov 10.6 20:33:40 10° NNW 20:33:43 10° NNW 20:33:43 10° NNW visible
08 Nov 10.1 18:58:56 10° NNE 18:59:19 10° NNE 18:59:19 10° NNE visible
08 Nov 10.6 20:42:48 10° NNW 20:42:49 10° NNW 20:42:49 10° NNW visible
09 Nov 10.0 19:07:09 10° N 19:08:27 13° NNE 19:08:27 13° NNE visible
